Wetterdaten: Samstag, 14.02.2015
Datum Zeit Temp. Auen Feucht Auen Luftdruck Regen Richtung Richtung Windben
14.02.2015 00:00 -2,5 C 96 % 1018,0 hPa 0,0 mm S-SO 161 4,8 km/h (1 Bft)
14.02.2015 00:05 -2,6 C 95 % 1017,9 hPa 0,0 mm S-SO 161 4,8 km/h (1 Bft)
14.02.2015 00:10 -2,6 C 95 % 1017,9 hPa 0,0 mm S-SO 161 4,8 km/h (1 Bft)
14.02.2015 00:15 -2,6 C 95 % 1017,9 hPa 0,0 mm S-SO 161 4,8 km/h (1 Bft)
14.02.2015 00:20 -2,6 C 95 % 1017,8 hPa 0,0 mm SO 146 4,8 km/h (1 Bft)
14.02.2015 00:25 -2,6 C 95 % 1017,9 hPa 0,0 mm SO 146 3,2 km/h (1 Bft)
14.02.2015 00:30 -2,7 C 95 % 1017,8 hPa 0,0 mm SO 146 3,2 km/h (1 Bft)
14.02.2015 00:35 -2,7 C 95 % 1017,9 hPa 0,0 mm S-SO 153 4,8 km/h (1 Bft)
14.02.2015 00:40 -2,7 C 95 % 1017,8 hPa 0,0 mm S-SO 153 3,2 km/h (1 Bft)
14.02.2015 00:45 -2,7 C 96 % 1017,8 hPa 0,0 mm S-SO 153 3,2 km/h (1 Bft)
14.02.2015 00:50 -2,8 C 96 % 1017,8 hPa 0,0 mm S-SO 161 6,4 km/h (2 Bft)
14.02.2015 00:55 -2,8 C 96 % 1017,7 hPa 0,0 mm SO 146 6,4 km/h (2 Bft)
14.02.2015 01:00 -2,9 C 95 % 1017,7 hPa 0,0 mm SO 146 4,8 km/h (1 Bft)
14.02.2015 01:05 -2,9 C 95 % 1017,6 hPa 0,0 mm S-SO 155 4,8 km/h (1 Bft)
14.02.2015 01:10 -2,9 C 96 % 1017,6 hPa 0,0 mm S-SO 157 4,8 km/h (1 Bft)
14.02.2015 01:15 -2,9 C 96 % 1017,6 hPa 0,0 mm S-SO 157 4,8 km/h (1 Bft)
14.02.2015 01:20 -3,1 C 96 % 1017,5 hPa 0,0 mm S 180 6,4 km/h (2 Bft)
14.02.2015 01:25 -3,1 C 96 % 1017,5 hPa 0,0 mm S 180 6,4 km/h (2 Bft)
14.02.2015 01:30 -3,0 C 95 % 1017,4 hPa 0,0 mm SO 145 6,4 km/h (2 Bft)
14.02.2015 01:35 -2,9 C 95 % 1017,5 hPa 0,0 mm S-SO 153 3,2 km/h (1 Bft)
14.02.2015 01:40 -3,1 C 96 % 1017,5 hPa 0,0 mm S-SO 161 3,2 km/h (1 Bft)
14.02.2015 01:45 -3,0 C 95 % 1017,5 hPa 0,0 mm S-SO 161 0,0 km/h (0 Bft)
14.02.2015 01:50 -3,1 C 96 % 1017,5 hPa 0,0 mm S-SO 161 0,0 km/h (0 Bft)
14.02.2015 01:55 -3,1 C 96 % 1017,6 hPa 0,0 mm S-SO 161 1,6 km/h (1 Bft)
14.02.2015 02:00 -3,1 C 96 % 1017,5 hPa 0,0 mm S-SO 161 0,0 km/h (0 Bft)
14.02.2015 02:05 -3,1 C 95 % 1017,4 hPa 0,0 mm S-SO 161 3,2 km/h (1 Bft)
14.02.2015 02:10 -3,3 C 95 % 1017,4 hPa 0,0 mm S-SO 161 3,2 km/h (1 Bft)
14.02.2015 02:15 -3,3 C 95 % 1017,4 hPa 0,0 mm S-SO 161 4,8 km/h (1 Bft)
14.02.2015 02:20 -3,3 C 95 % 1017,4 hPa 0,0 mm S-SO 161 4,8 km/h (1 Bft)
14.02.2015 02:25 -3,3 C 95 % 1017,3 hPa 0,0 mm S-SO 161 3,2 km/h (1 Bft)
14.02.2015 02:30 -3,2 C 95 % 1017,4 hPa 0,0 mm S-SO 161 1,6 km/h (1 Bft)
14.02.2015 02:35 -3,3 C 95 % 1017,4 hPa 0,0 mm S-SO 161 1,6 km/h (1 Bft)
14.02.2015 02:40 -3,3 C 95 % 1017,4 hPa 0,0 mm S-SO 161 1,6 km/h (1 Bft)
14.02.2015 02:45 -3,3 C 95 % 1017,4 hPa 0,0 mm S-SO 161 1,6 km/h (1 Bft)
14.02.2015 02:50 -3,3 C 95 % 1017,4 hPa 0,0 mm S-SO 161 0,0 km/h (0 Bft)
14.02.2015 02:55 -3,3 C 95 % 1017,4 hPa 0,0 mm S-SO 161 1,6 km/h (1 Bft)
14.02.2015 03:00 -3,4 C 95 % 1017,4 hPa 0,0 mm S-SO 161 3,2 km/h (1 Bft)
14.02.2015 03:05 -3,4 C 95 % 1017,4 hPa 0,0 mm S 190 1,6 km/h (1 Bft)
14.02.2015 03:10 -3,4 C 95 % 1017,4 hPa 0,0 mm S-SW 200 3,2 km/h (1 Bft)
14.02.2015 03:15 -3,3 C 95 % 1017,3 hPa 0,0 mm W 265 4,8 km/h (1 Bft)
14.02.2015 03:20 -3,3 C 95 % 1017,3 hPa 0,0 mm W 263 6,4 km/h (2 Bft)
14.02.2015 03:25 -3,4 C 95 % 1017,3 hPa 0,0 mm W 267 6,4 km/h (2 Bft)
14.02.2015 03:30 -3,5 C 95 % 1017,3 hPa 0,0 mm W 263 8,0 km/h (2 Bft)
14.02.2015 03:35 -3,7 C 95 % 1017,3 hPa 0,0 mm W 266 6,4 km/h (2 Bft)
14.02.2015 03:40 -3,8 C 95 % 1017,4 hPa 0,0 mm W 266 4,8 km/h (1 Bft)
14.02.2015 03:45 -3,9 C 95 % 1017,2 hPa 0,0 mm W 265 4,8 km/h (1 Bft)
14.02.2015 03:50 -3,9 C 95 % 1017,2 hPa 0,0 mm W 271 4,8 km/h (1 Bft)
14.02.2015 03:55 -4,0 C 95 % 1017,3 hPa 0,0 mm W 272 6,4 km/h (2 Bft)
14.02.2015 04:00 -4,0 C 95 % 1017,3 hPa 0,0 mm W 272 4,8 km/h (1 Bft)
14.02.2015 04:05 -4,1 C 95 % 1017,3 hPa 0,0 mm W 271 4,8 km/h (1 Bft)
14.02.2015 04:10 -4,1 C 95 % 1017,3 hPa 0,0 mm W 271 3,2 km/h (1 Bft)
14.02.2015 04:15 -4,2 C 95 % 1017,4 hPa 0,0 mm W 271 3,2 km/h (1 Bft)
14.02.2015 04:20 -4,3 C 95 % 1017,4 hPa 0,0 mm W 270 6,4 km/h (2 Bft)
14.02.2015 04:25 -4,3 C 95 % 1017,4 hPa 0,0 mm W 272 6,4 km/h (2 Bft)
14.02.2015 04:30 -4,2 C 95 % 1017,5 hPa 0,0 mm W 265 6,4 km/h (2 Bft)
14.02.2015 04:35 -4,3 C 95 % 1017,4 hPa 0,0 mm W 265 3,2 km/h (1 Bft)
14.02.2015 04:40 -4,4 C 95 % 1017,4 hPa 0,0 mm W 265 4,8 km/h (1 Bft)
14.02.2015 04:45 -4,4 C 95 % 1017,3 hPa 0,0 mm W 265 1,6 km/h (1 Bft)
14.02.2015 04:50 -4,5 C 95 % 1017,4 hPa 0,0 mm W 265 1,6 km/h (1 Bft)
14.02.2015 04:55 -4,6 C 95 % 1017,4 hPa 0,0 mm W 265 1,6 km/h (1 Bft)
14.02.2015 05:00 -4,7 C 95 % 1017,4 hPa 0,0 mm W 265 1,6 km/h (1 Bft)
14.02.2015 05:05 -4,8 C 95 % 1017,3 hPa 0,0 mm W 265 0,0 km/h (0 Bft)
14.02.2015 05:10 -4,9 C 95 % 1017,3 hPa 0,0 mm W 265 1,6 km/h (1 Bft)
14.02.2015 05:15 -4,9 C 95 % 1017,2 hPa 0,0 mm W 260 3,2 km/h (1 Bft)
14.02.2015 05:20 -4,9 C 95 % 1017,3 hPa 0,0 mm SO 138 6,4 km/h (2 Bft)
14.02.2015 05:25 -4,9 C 95 % 1017,2 hPa 0,0 mm O-NO 77 6,4 km/h (2 Bft)
14.02.2015 05:30 -5,0 C 95 % 1017,2 hPa 0,0 mm O-NO 77 3,2 km/h (1 Bft)
14.02.2015 05:35 -4,9 C 95 % 1017,1 hPa 0,0 mm O-NO 77 1,6 km/h (1 Bft)
14.02.2015 05:40 -4,9 C 95 % 1017,2 hPa 0,0 mm O-NO 77 0,0 km/h (0 Bft)
14.02.2015 05:45 -4,9 C 95 % 1017,2 hPa 0,0 mm O-NO 77 0,0 km/h (0 Bft)
14.02.2015 05:50 -4,8 C 95 % 1017,2 hPa 0,0 mm O-NO 77 1,6 km/h (1 Bft)
14.02.2015 05:55 -4,8 C 95 % 1017,2 hPa 0,0 mm O-NO 77 1,6 km/h (1 Bft)
14.02.2015 06:00 -4,8 C 95 % 1017,2 hPa 0,0 mm O-NO 77 0,0 km/h (0 Bft)
14.02.2015 06:05 -4,8 C 95 % 1017,1 hPa 0,0 mm O-NO 77 0,0 km/h (0 Bft)
14.02.2015 06:10 -4,7 C 95 % 1017,2 hPa 0,0 mm O-NO 77 0,0 km/h (0 Bft)
14.02.2015 06:15 -4,7 C 95 % 1017,1 hPa 0,0 mm O-NO 77 0,0 km/h (0 Bft)
14.02.2015 06:20 -4,7 C 95 % 1017,0 hPa 0,0 mm O 101 1,6 km/h (1 Bft)
14.02.2015 06:25 -4,6 C 95 % 1017,0 hPa 0,0 mm O 101 1,6 km/h (1 Bft)
14.02.2015 06:30 -4,6 C 95 % 1017,0 hPa 0,0 mm O-SO 102 0,0 km/h (0 Bft)
14.02.2015 06:35 -4,6 C 95 % 1017,0 hPa 0,0 mm O 101 1,6 km/h (1 Bft)
14.02.2015 06:40 -4,6 C 95 % 1017,0 hPa 0,0 mm O-SO 102 4,8 km/h (1 Bft)
14.02.2015 06:45 -4,6 C 95 % 1016,9 hPa 0,0 mm O-SO 102 0,0 km/h (0 Bft)
14.02.2015 06:50 -4,6 C 95 % 1016,9 hPa 0,0 mm NO 43 4,8 km/h (1 Bft)
14.02.2015 06:55 -4,6 C 95 % 1016,9 hPa 0,0 mm NO 43 4,8 km/h (1 Bft)
14.02.2015 07:00 -4,5 C 95 % 1016,8 hPa 0,0 mm O-NO 58 4,8 km/h (1 Bft)
14.02.2015 07:05 -4,5 C 95 % 1016,8 hPa 0,0 mm O-NO 58 3,2 km/h (1 Bft)
14.02.2015 07:10 -4,4 C 95 % 1016,8 hPa 0,0 mm S-SO 147 4,8 km/h (1 Bft)
14.02.2015 07:15 -4,4 C 95 % 1016,8 hPa 0,0 mm SO 133 6,4 km/h (2 Bft)
14.02.2015 07:20 -4,4 C 95 % 1016,8 hPa 0,0 mm SO 146 9,7 km/h (2 Bft)
14.02.2015 07:25 -4,4 C 95 % 1016,8 hPa 0,0 mm S-SO 152 4,8 km/h (1 Bft)
14.02.2015 07:30 -4,3 C 95 % 1016,9 hPa 0,0 mm O-SO 114 3,2 km/h (1 Bft)
14.02.2015 07:35 -4,4 C 95 % 1016,8 hPa 0,0 mm SO 143 3,2 km/h (1 Bft)
14.02.2015 07:40 -4,3 C 95 % 1016,9 hPa 0,0 mm SO 143 3,2 km/h (1 Bft)
14.02.2015 07:45 -4,3 C 95 % 1016,8 hPa 0,0 mm SO 143 3,2 km/h (1 Bft)
14.02.2015 07:50 -4,3 C 95 % 1016,8 hPa 0,0 mm SO 143 1,6 km/h (1 Bft)
14.02.2015 07:55 -4,3 C 95 % 1016,8 hPa 0,0 mm SO 143 4,8 km/h (1 Bft)
14.02.2015 08:00 -4,3 C 95 % 1016,8 hPa 0,0 mm S-SO 157 4,8 km/h (1 Bft)
14.02.2015 08:05 -4,2 C 95 % 1016,6 hPa 0,0 mm S-SO 157 3,2 km/h (1 Bft)
14.02.2015 08:10 -4,2 C 95 % 1016,7 hPa 0,0 mm S-SO 157 3,2 km/h (1 Bft)
14.02.2015 08:15 -4,2 C 95 % 1016,6 hPa 0,0 mm S-SO 157 3,2 km/h (1 Bft)
14.02.2015 08:20 -4,2 C 95 % 1016,5 hPa 0,0 mm S-SO 157 3,2 km/h (1 Bft)
14.02.2015 08:25 -4,1 C 95 % 1016,5 hPa 0,0 mm S-SO 157 3,2 km/h (1 Bft)
14.02.2015 08:30 -4,1 C 95 % 1016,5 hPa 0,0 mm S-SO 157 4,8 km/h (1 Bft)
14.02.2015 08:35 -4,0 C 95 % 1016,7 hPa 0,0 mm S-SO 157 3,2 km/h (1 Bft)
14.02.2015 08:40 -4,0 C 95 % 1016,5 hPa 0,0 mm S-SO 157 4,8 km/h (1 Bft)
14.02.2015 08:45 -4,0 C 95 % 1016,4 hPa 0,0 mm S-SO 159 4,8 km/h (1 Bft)
14.02.2015 08:50 -4,0 C 95 % 1016,4 hPa 0,0 mm S-SO 160 3,2 km/h (1 Bft)
14.02.2015 08:55 -4,0 C 95 % 1016,4 hPa 0,0 mm S-SO 160 4,8 km/h (1 Bft)
14.02.2015 09:00 -3,9 C 95 % 1016,3 hPa 0,0 mm S-SO 159 3,2 km/h (1 Bft)
14.02.2015 09:05 -3,9 C 95 % 1016,3 hPa 0,0 mm S-SO 160 4,8 km/h (1 Bft)
14.02.2015 09:10 -3,9 C 95 % 1016,3 hPa 0,0 mm S-SO 160 3,2 km/h (1 Bft)
14.02.2015 09:15 -3,9 C 95 % 1016,3 hPa 0,0 mm S-SO 160 3,2 km/h (1 Bft)
14.02.2015 09:20 -3,8 C 95 % 1016,4 hPa 0,0 mm S-SO 160 3,2 km/h (1 Bft)
14.02.2015 09:25 -3,8 C 95 % 1016,3 hPa 0,0 mm S-SO 160 4,8 km/h (1 Bft)
14.02.2015 09:30 -3,7 C 95 % 1016,2 hPa 0,0 mm S-SO 159 4,8 km/h (1 Bft)
14.02.2015 09:35 -3,6 C 95 % 1016,2 hPa 0,0 mm S-SO 159 3,2 km/h (1 Bft)
14.02.2015 09:40 -3,6 C 95 % 1016,2 hPa 0,0 mm SO 131 4,8 km/h (1 Bft)
14.02.2015 09:45 -3,6 C 95 % 1016,1 hPa 0,0 mm SO 128 3,2 km/h (1 Bft)
14.02.2015 09:50 -3,5 C 95 % 1016,1 hPa 0,0 mm SO 128 3,2 km/h (1 Bft)
14.02.2015 09:55 -3,3 C 95 % 1016,0 hPa 0,0 mm SO 127 3,2 km/h (1 Bft)
14.02.2015 10:00 -3,2 C 95 % 1015,9 hPa 0,0 mm SO 126 3,2 km/h (1 Bft)
14.02.2015 10:05 -3,0 C 95 % 1015,9 hPa 0,0 mm SO 137 6,4 km/h (2 Bft)
14.02.2015 10:10 -2,9 C 95 % 1015,8 hPa 0,0 mm SO 137 8,0 km/h (2 Bft)
14.02.2015 10:15 -2,7 C 95 % 1015,7 hPa 0,0 mm S-SO 155 6,4 km/h (2 Bft)
14.02.2015 10:20 -2,7 C 95 % 1015,7 hPa 0,0 mm SO 141 6,4 km/h (2 Bft)
14.02.2015 10:25 -2,7 C 95 % 1015,7 hPa 0,0 mm S-SO 151 6,4 km/h (2 Bft)
14.02.2015 10:30 -2,6 C 95 % 1015,6 hPa 0,0 mm SO 134 6,4 km/h (2 Bft)
14.02.2015 10:35 -2,4 C 96 % 1015,5 hPa 0,0 mm SO 140 8,0 km/h (2 Bft)
14.02.2015 10:40 -2,4 C 96 % 1015,4 hPa 0,0 mm SO 136 9,7 km/h (2 Bft)
14.02.2015 10:45 -2,3 C 95 % 1015,4 hPa 0,0 mm SO 132 8,0 km/h (2 Bft)
14.02.2015 10:50 -2,2 C 95 % 1015,4 hPa 0,0 mm SO 138 8,0 km/h (2 Bft)
14.02.2015 10:55 -2,1 C 96 % 1015,4 hPa 0,0 mm SO 140 8,0 km/h (2 Bft)
14.02.2015 11:00 -2,0 C 95 % 1015,4 hPa 0,0 mm O-SO 102 8,0 km/h (2 Bft)
14.02.2015 11:05 -1,9 C 95 % 1015,3 hPa 0,0 mm O-SO 103 9,7 km/h (2 Bft)
14.02.2015 11:10 -1,9 C 95 % 1015,3 hPa 0,0 mm SO 126 8,0 km/h (2 Bft)
14.02.2015 11:15 -1,7 C 95 % 1015,2 hPa 0,0 mm SO 128 8,0 km/h (2 Bft)
14.02.2015 11:20 -1,6 C 95 % 1015,1 hPa 0,0 mm O 90 11,3 km/h (2 Bft)
14.02.2015 11:25 -1,4 C 96 % 1015,1 hPa 0,0 mm O 85 12,9 km/h (3 Bft)
14.02.2015 11:30 -1,3 C 95 % 1014,9 hPa 0,0 mm O 98 12,9 km/h (3 Bft)
14.02.2015 11:35 -1,2 C 96 % 1014,8 hPa 0,0 mm O-SO 113 14,5 km/h (3 Bft)
14.02.2015 11:40 -1,0 C 95 % 1014,9 hPa 0,0 mm O 79 14,5 km/h (3 Bft)
14.02.2015 11:45 -0,9 C 95 % 1014,8 hPa 0,0 mm O-SO 105 12,9 km/h (3 Bft)
14.02.2015 11:50 -0,7 C 95 % 1014,7 hPa 0,0 mm O 89 14,5 km/h (3 Bft)
14.02.2015 11:55 -0,5 C 95 % 1014,6 hPa 0,0 mm O 98 12,9 km/h (3 Bft)
14.02.2015 12:00 -0,4 C 95 % 1014,5 hPa 0,0 mm O 89 14,5 km/h (3 Bft)
14.02.2015 12:05 -0,3 C 94 % 1014,4 hPa 0,0 mm O-SO 111 12,9 km/h (3 Bft)
14.02.2015 12:10 -0,2 C 93 % 1014,4 hPa 0,0 mm O-NO 71 12,9 km/h (3 Bft)
14.02.2015 12:15 -0,2 C 92 % 1014,4 hPa 0,0 mm O 94 12,9 km/h (3 Bft)
14.02.2015 12:20 -0,1 C 92 % 1014,4 hPa 0,0 mm O 91 12,9 km/h (3 Bft)
14.02.2015 12:25 0,0 C 90 % 1014,3 hPa 0,0 mm O-NO 78 11,3 km/h (2 Bft)
14.02.2015 12:30 0,0 C 90 % 1014,3 hPa 0,0 mm O 84 12,9 km/h (3 Bft)
14.02.2015 12:35 0,2 C 90 % 1014,2 hPa 0,0 mm O-NO 75 11,3 km/h (2 Bft)
14.02.2015 12:40 0,2 C 90 % 1014,3 hPa 0,0 mm O 98 11,3 km/h (2 Bft)
14.02.2015 12:45 0,3 C 90 % 1014,1 hPa 0,0 mm O-SO 103 11,3 km/h (2 Bft)
14.02.2015 12:50 0,1 C 90 % 1014,0 hPa 0,0 mm O 90 12,9 km/h (3 Bft)
14.02.2015 12:55 0,1 C 90 % 1014,0 hPa 0,0 mm O-SO 115 11,3 km/h (2 Bft)
14.02.2015 13:00 -0,2 C 91 % 1014,0 hPa 0,0 mm O-SO 114 11,3 km/h (2 Bft)
14.02.2015 13:05 -0,1 C 91 % 1013,9 hPa 0,0 mm O 92 12,9 km/h (3 Bft)
14.02.2015 13:10 -0,1 C 91 % 1013,8 hPa 0,0 mm O-SO 109 14,5 km/h (3 Bft)
14.02.2015 13:15 -0,1 C 91 % 1013,7 hPa 0,0 mm O-SO 113 12,9 km/h (3 Bft)
14.02.2015 13:20 -0,2 C 91 % 1013,7 hPa 0,0 mm O-SO 112 14,5 km/h (3 Bft)
14.02.2015 13:25 -0,1 C 91 % 1013,6 hPa 0,0 mm O 83 14,5 km/h (3 Bft)
14.02.2015 13:30 0,0 C 92 % 1013,5 hPa 0,0 mm O 95 14,5 km/h (3 Bft)
14.02.2015 13:35 0,0 C 91 % 1013,5 hPa 0,0 mm O 95 14,5 km/h (3 Bft)
14.02.2015 13:40 -0,1 C 91 % 1013,5 hPa 0,0 mm O 101 16,1 km/h (3 Bft)
14.02.2015 13:45 -0,1 C 91 % 1013,5 hPa 0,0 mm O 82 14,5 km/h (3 Bft)
14.02.2015 13:50 -0,2 C 91 % 1013,5 hPa 0,0 mm O-NO 74 14,5 km/h (3 Bft)
14.02.2015 13:55 -0,3 C 91 % 1013,5 hPa 0,0 mm O-NO 78 12,9 km/h (3 Bft)
14.02.2015 14:00 -0,2 C 92 % 1013,5 hPa 0,0 mm O 87 11,3 km/h (2 Bft)
14.02.2015 14:05 -0,2 C 92 % 1013,4 hPa 0,0 mm O 85 11,3 km/h (2 Bft)
14.02.2015 14:10 -0,2 C 92 % 1013,3 hPa 0,0 mm O 83 11,3 km/h (2 Bft)
14.02.2015 14:15 -0,2 C 91 % 1013,3 hPa 0,0 mm O 92 12,9 km/h (3 Bft)
14.02.2015 14:20 -0,3 C 91 % 1013,3 hPa 0,0 mm O-SO 103 12,9 km/h (3 Bft)
14.02.2015 14:25 -0,3 C 92 % 1013,3 hPa 0,0 mm O 90 12,9 km/h (3 Bft)
14.02.2015 14:30 -0,4 C 92 % 1013,3 hPa 0,0 mm O 94 12,9 km/h (3 Bft)
14.02.2015 14:35 -0,5 C 92 % 1013,4 hPa 0,0 mm O-SO 113 14,5 km/h (3 Bft)
14.02.2015 14:40 -0,6 C 92 % 1013,4 hPa 0,0 mm O-SO 123 16,1 km/h (3 Bft)
14.02.2015 14:45 -0,6 C 92 % 1013,3 hPa 0,0 mm SO 124 14,5 km/h (3 Bft)
14.02.2015 14:50 -0,7 C 92 % 1013,3 hPa 0,0 mm O-SO 108 16,1 km/h (3 Bft)
14.02.2015 14:55 -0,7 C 92 % 1013,2 hPa 0,0 mm O 95 14,5 km/h (3 Bft)
14.02.2015 15:00 -0,6 C 93 % 1013,3 hPa 0,0 mm O-NO 77 14,5 km/h (3 Bft)
14.02.2015 15:05 -0,6 C 93 % 1013,4 hPa 0,0 mm O-SO 102 14,5 km/h (3 Bft)
14.02.2015 15:10 -0,6 C 92 % 1013,4 hPa 0,0 mm O-NO 77 12,9 km/h (3 Bft)
14.02.2015 15:15 -0,5 C 92 % 1013,5 hPa 0,0 mm O 92 14,5 km/h (3 Bft)
14.02.2015 15:20 -0,5 C 92 % 1013,4 hPa 0,0 mm O 87 12,9 km/h (3 Bft)
14.02.2015 15:25 -0,4 C 92 % 1013,4 hPa 0,0 mm O-SO 103 12,9 km/h (3 Bft)
14.02.2015 15:30 -0,4 C 92 % 1013,4 hPa 0,0 mm O 101 12,9 km/h (3 Bft)
14.02.2015 15:35 -0,5 C 92 % 1013,4 hPa 0,0 mm O 81 14,5 km/h (3 Bft)
14.02.2015 15:40 -0,6 C 92 % 1013,4 hPa 0,0 mm O-SO 113 12,9 km/h (3 Bft)
14.02.2015 15:45 -0,7 C 92 % 1013,3 hPa 0,0 mm O-SO 117 12,9 km/h (3 Bft)
14.02.2015 15:50 -0,7 C 93 % 1013,2 hPa 0,0 mm O 92 12,9 km/h (3 Bft)
14.02.2015 15:55 -0,7 C 93 % 1013,2 hPa 0,0 mm O-SO 117 9,7 km/h (2 Bft)
14.02.2015 16:00 -0,8 C 93 % 1013,2 hPa 0,0 mm O-SO 106 12,9 km/h (3 Bft)
14.02.2015 16:05 -0,9 C 93 % 1013,2 hPa 0,0 mm O 100 12,9 km/h (3 Bft)
14.02.2015 16:10 -1,0 C 93 % 1013,1 hPa 0,0 mm O-SO 103 12,9 km/h (3 Bft)
14.02.2015 16:15 -1,0 C 93 % 1013,1 hPa 0,0 mm O 87 14,5 km/h (3 Bft)
14.02.2015 16:20 -1,1 C 93 % 1013,2 hPa 0,0 mm O 86 14,5 km/h (3 Bft)
14.02.2015 16:25 -1,1 C 94 % 1013,2 hPa 0,0 mm O 86 14,5 km/h (3 Bft)
14.02.2015 16:30 -1,2 C 93 % 1013,2 hPa 0,0 mm O 90 12,9 km/h (3 Bft)
14.02.2015 16:35 -1,2 C 94 % 1013,1 hPa 0,0 mm O 94 12,9 km/h (3 Bft)
14.02.2015 16:40 -1,2 C 94 % 1013,1 hPa 0,0 mm O 94 11,3 km/h (2 Bft)
14.02.2015 16:45 -1,3 C 94 % 1013,1 hPa 0,0 mm O-SO 118 9,7 km/h (2 Bft)
14.02.2015 16:50 -1,4 C 94 % 1013,1 hPa 0,0 mm O 96 8,0 km/h (2 Bft)
14.02.2015 16:55 -1,3 C 94 % 1013,1 hPa 0,0 mm O 84 11,3 km/h (2 Bft)
14.02.2015 17:00 -1,3 C 94 % 1013,2 hPa 0,0 mm O 90 9,7 km/h (2 Bft)
14.02.2015 17:05 -1,6 C 94 % 1013,1 hPa 0,0 mm SO 130 4,8 km/h (1 Bft)
14.02.2015 17:10 -1,7 C 94 % 1013,2 hPa 0,0 mm SO 133 4,8 km/h (1 Bft)
14.02.2015 17:15 -1,9 C 94 % 1013,3 hPa 0,0 mm O 88 4,8 km/h (1 Bft)
14.02.2015 17:20 -1,9 C 94 % 1013,3 hPa 0,0 mm O 84 4,8 km/h (1 Bft)
14.02.2015 17:25 -1,9 C 94 % 1013,3 hPa 0,0 mm O-NO 63 8,0 km/h (2 Bft)
14.02.2015 17:30 -1,9 C 94 % 1013,3 hPa 0,0 mm O 96 8,0 km/h (2 Bft)
14.02.2015 17:35 -2,1 C 94 % 1013,4 hPa 0,0 mm SO 132 4,8 km/h (1 Bft)
14.02.2015 17:40 -2,1 C 94 % 1013,4 hPa 0,0 mm SO 132 3,2 km/h (1 Bft)
14.02.2015 17:45 -2,1 C 94 % 1013,4 hPa 0,0 mm SO 141 4,8 km/h (1 Bft)
14.02.2015 17:50 -2,2 C 95 % 1013,6 hPa 0,0 mm SO 137 3,2 km/h (1 Bft)
14.02.2015 17:55 -2,2 C 95 % 1013,5 hPa 0,0 mm SO 142 4,8 km/h (1 Bft)
14.02.2015 18:00 -2,2 C 95 % 1013,5 hPa 0,0 mm SO 142 4,8 km/h (1 Bft)
14.02.2015 18:05 -2,2 C 95 % 1013,6 hPa 0,0 mm SO 142 4,8 km/h (1 Bft)
14.02.2015 18:10 -2,3 C 95 % 1013,6 hPa 0,0 mm SO 142 4,8 km/h (1 Bft)
14.02.2015 18:15 -2,1 C 95 % 1013,6 hPa 0,0 mm SO 134 6,4 km/h (2 Bft)
14.02.2015 18:20 -2,1 C 95 % 1013,6 hPa 0,0 mm O-SO 121 6,4 km/h (2 Bft)
14.02.2015 18:25 -1,9 C 95 % 1013,6 hPa 0,0 mm O 94 8,0 km/h (2 Bft)
14.02.2015 18:30 -1,8 C 95 % 1013,6 hPa 0,0 mm O-SO 112 11,3 km/h (2 Bft)
14.02.2015 18:35 -1,8 C 95 % 1013,6 hPa 0,0 mm O-NO 73 11,3 km/h (2 Bft)
14.02.2015 18:40 -1,7 C 95 % 1013,6 hPa 0,0 mm O-SO 107 11,3 km/h (2 Bft)
14.02.2015 18:45 -1,6 C 95 % 1013,6 hPa 0,0 mm O 89 11,3 km/h (2 Bft)
14.02.2015 18:50 -1,6 C 95 % 1013,7 hPa 0,0 mm O 88 11,3 km/h (2 Bft)
14.02.2015 18:55 -1,7 C 95 % 1013,6 hPa 0,0 mm O 94 9,7 km/h (2 Bft)
14.02.2015 19:00 -1,6 C 95 % 1013,6 hPa 0,0 mm O 92 11,3 km/h (2 Bft)
14.02.2015 19:05 -1,7 C 95 % 1013,7 hPa 0,0 mm O 88 11,3 km/h (2 Bft)
14.02.2015 19:10 -1,7 C 95 % 1013,7 hPa 0,0 mm O 89 9,7 km/h (2 Bft)
14.02.2015 19:15 -1,6 C 95 % 1013,7 hPa 0,0 mm O 96 11,3 km/h (2 Bft)
14.02.2015 19:20 -1,7 C 95 % 1013,7 hPa 0,0 mm O 97 11,3 km/h (2 Bft)
14.02.2015 19:25 -1,7 C 95 % 1013,6 hPa 0,0 mm O 91 12,9 km/h (3 Bft)
14.02.2015 19:30 -1,8 C 95 % 1013,6 hPa 0,0 mm O 92 12,9 km/h (3 Bft)
14.02.2015 19:35 -1,9 C 95 % 1013,6 hPa 0,0 mm O-SO 116 9,7 km/h (2 Bft)
14.02.2015 19:40 -1,9 C 95 % 1013,6 hPa 0,0 mm O 80 11,3 km/h (2 Bft)
14.02.2015 19:45 -1,8 C 95 % 1013,6 hPa 0,0 mm O-SO 114 9,7 km/h (2 Bft)
14.02.2015 19:50 -1,9 C 95 % 1013,5 hPa 0,0 mm O-SO 121 11,3 km/h (2 Bft)
14.02.2015 19:55 -1,9 C 95 % 1013,5 hPa 0,0 mm O-NO 67 11,3 km/h (2 Bft)
14.02.2015 20:00 -1,9 C 95 % 1013,5 hPa 0,0 mm O-SO 103 9,7 km/h (2 Bft)
14.02.2015 20:05 -1,9 C 95 % 1013,5 hPa 0,0 mm O-NO 68 9,7 km/h (2 Bft)
14.02.2015 20:10 -1,9 C 95 % 1013,5 hPa 0,0 mm O-SO 105 11,3 km/h (2 Bft)
14.02.2015 20:15 -1,9 C 95 % 1013,4 hPa 0,0 mm O 94 11,3 km/h (2 Bft)
14.02.2015 20:20 -2,0 C 95 % 1013,4 hPa 0,0 mm O 96 9,7 km/h (2 Bft)
14.02.2015 20:25 -1,9 C 95 % 1013,4 hPa 0,0 mm O-SO 109 11,3 km/h (2 Bft)
14.02.2015 20:30 -2,0 C 95 % 1013,4 hPa 0,0 mm O-NO 78 11,3 km/h (2 Bft)
14.02.2015 20:35 -2,1 C 95 % 1013,4 hPa 0,0 mm O-SO 115 9,7 km/h (2 Bft)
14.02.2015 20:40 -2,1 C 95 % 1013,5 hPa 0,0 mm O-SO 117 9,7 km/h (2 Bft)
14.02.2015 20:45 -2,1 C 95 % 1013,5 hPa 0,0 mm O-SO 106 8,0 km/h (2 Bft)
14.02.2015 20:50 -2,2 C 95 % 1013,5 hPa 0,0 mm O-SO 115 9,7 km/h (2 Bft)
14.02.2015 20:55 -2,1 C 95 % 1013,4 hPa 0,0 mm O-SO 117 8,0 km/h (2 Bft)
14.02.2015 21:00 -2,1 C 95 % 1013,4 hPa 0,0 mm O 98 9,7 km/h (2 Bft)
14.02.2015 21:05 -2,0 C 95 % 1013,3 hPa 0,0 mm O 96 8,0 km/h (2 Bft)
14.02.2015 21:10 -2,0 C 95 % 1013,4 hPa 0,0 mm O 94 11,3 km/h (2 Bft)
14.02.2015 21:15 -2,0 C 95 % 1013,3 hPa 0,0 mm O 85 9,7 km/h (2 Bft)
14.02.2015 21:20 -2,1 C 95 % 1013,4 hPa 0,0 mm O 82 9,7 km/h (2 Bft)
14.02.2015 21:25 -2,2 C 95 % 1013,4 hPa 0,0 mm O-NO 77 9,7 km/h (2 Bft)
14.02.2015 21:30 -2,2 C 95 % 1013,3 hPa 0,0 mm O 80 9,7 km/h (2 Bft)
14.02.2015 21:35 -2,2 C 95 % 1013,3 hPa 0,0 mm O-SO 103 9,7 km/h (2 Bft)
14.02.2015 21:40 -2,2 C 95 % 1013,2 hPa 0,0 mm O-SO 107 11,3 km/h (2 Bft)
14.02.2015 21:45 -2,2 C 95 % 1013,2 hPa 0,0 mm SO 124 8,0 km/h (2 Bft)
14.02.2015 21:50 -2,2 C 95 % 1013,2 hPa 0,0 mm O-SO 123 8,0 km/h (2 Bft)
14.02.2015 21:55 -2,2 C 95 % 1013,2 hPa 0,0 mm O-SO 119 6,4 km/h (2 Bft)
14.02.2015 22:00 -2,2 C 95 % 1013,3 hPa 0,0 mm SO 134 6,4 km/h (2 Bft)
14.02.2015 22:05 -2,3 C 95 % 1013,2 hPa 0,0 mm SO 132 6,4 km/h (2 Bft)
14.02.2015 22:10 -2,3 C 95 % 1013,3 hPa 0,0 mm SO 134 6,4 km/h (2 Bft)
14.02.2015 22:15 -2,3 C 95 % 1013,3 hPa 0,0 mm SO 134 6,4 km/h (2 Bft)
14.02.2015 22:20 -2,3 C 95 % 1013,4 hPa 0,0 mm SO 144 4,8 km/h (1 Bft)
14.02.2015 22:25 -2,3 C 95 % 1013,3 hPa 0,0 mm S-SO 148 4,8 km/h (1 Bft)
14.02.2015 22:30 -2,3 C 95 % 1013,4 hPa 0,0 mm SO 138 6,4 km/h (2 Bft)
14.02.2015 22:35 -2,3 C 95 % 1013,4 hPa 0,0 mm SO 138 6,4 km/h (2 Bft)
14.02.2015 22:40 -2,4 C 95 % 1013,4 hPa 0,0 mm SO 138 4,8 km/h (1 Bft)
14.02.2015 22:45 -2,4 C 95 % 1013,2 hPa 0,0 mm SO 138 4,8 km/h (1 Bft)
14.02.2015 22:50 -2,4 C 95 % 1013,4 hPa 0,0 mm SO 138 4,8 km/h (1 Bft)
14.02.2015 22:55 -2,4 C 95 % 1013,3 hPa 0,0 mm SO 140 6,4 km/h (2 Bft)
14.02.2015 23:00 -2,4 C 95 % 1013,3 hPa 0,0 mm O-SO 113 4,8 km/h (1 Bft)
14.02.2015 23:05 -2,4 C 95 % 1013,3 hPa 0,0 mm SO 125 4,8 km/h (1 Bft)
14.02.2015 23:10 -2,4 C 95 % 1013,3 hPa 0,0 mm SO 125 4,8 km/h (1 Bft)
14.02.2015 23:15 -2,4 C 95 % 1013,3 hPa 0,0 mm SO 140 6,4 km/h (2 Bft)
14.02.2015 23:20 -2,4 C 95 % 1013,3 hPa 0,0 mm O 85 6,4 km/h (2 Bft)
14.02.2015 23:25 -2,4 C 95 % 1013,3 hPa 0,0 mm O-SO 114 8,0 km/h (2 Bft)
14.02.2015 23:30 -2,4 C 95 % 1013,3 hPa 0,0 mm O-SO 114 8,0 km/h (2 Bft)
14.02.2015 23:35 -2,5 C 95 % 1013,4 hPa 0,0 mm SO 144 6,4 km/h (2 Bft)
14.02.2015 23:40 -2,4 C 95 % 1013,4 hPa 0,0 mm O 101 8,0 km/h (2 Bft)
14.02.2015 23:45 -2,5 C 95 % 1013,4 hPa 0,0 mm SO 126 6,4 km/h (2 Bft)
14.02.2015 23:50 -2,5 C 95 % 1013,4 hPa 0,0 mm O-SO 103 8,0 km/h (2 Bft)
14.02.2015 23:55 -2,6 C 95 % 1013,4 hPa 0,0 mm O-NO 78 8,0 km/h (2 Bft)
_ Min-Zeit 05:30 12:25 16:10 - - - 01:45
Minimum _ -5,0 C 90 % 1013,1 hPa - - - 0,0 km/h (0 Bft)
_ Max-Zeit 12:45 00:00 00:00 00:00 - - 13:40
Maximum _ 0,3 C 96 % 1018,0 hPa 0,0 mm - - 16,1 km/h
O (3 Bft)
Durchschnitt _ -2,5 C 94 % 1015,2 hPa #0,0 mm O - 7,3 km/h (2 Bft)